Theta_e
295 294 293 292 296 296 296 297 297 296 296 295 293 293 292 293 294 293 292 291 291 290 290 290 290 289 289 289 289 290 290 290 290 290 290 290 290 289 289 289 289 289 289 289
293 293 292 295 296 296 296 296 297 296 294 294 293 293 291 292 291 292 292 292 291 291 290 290 290 290 289 289 289 289 290 290 290 290 290 290 289 289 289 289 289 289 289 289
293 294 294 296 294 298 297 297 298 297 296 292 293 296 291 291 292 292 292 292 292 292 291 290 290 290 290 290 289 289 290 290 290 290 290 289 289 289 289 289 289 289 289 289
292 293 294 295 295 296 298 297 297 298 298 295 296 294 296 290 289 290 292 292 292 293 292 291 290 290 290 290 290 290 290 289 289 289 289 289 289 289 289 289 289 289 289 289
292 293 294 296 296 295 299 298 299 300 297 294 295 290 294 292 291 291 291 293 293 294 293 292 291 291 291 290 290 290 290 290 289 290 289 289 289 289 289 289 289 289 289 289
291 291 291 293 293 296 297 298 297 296 296 291 291 291 293 295 295 293 293 293 294 294 294 294 292 291 290 290 290 290 290 290 290 289 289 289 289 289 289 289 289 289 289 288
292 292 291 291 294 294 296 298 291 292 292 294 293 290 295 294 293 294 295 296 296 295 294 295 294 291 291 291 291 290 290 290 290 290 290 290 289 289 289 289 289 289 288 288
293 296 291 291 292 294 295 295 292 288 293 293 290 292 296 292 294 298 297 298 298 297 296 295 296 294 292 291 291 291 291 291 290 290 290 289 289 289 289 289 288 289 288 288
293 296 290 290 290 291 292 294 291 282 273 286 292 292 294 291 295 296 298 298 298 299 298 297 297 296 295 292 291 291 291 290 290 290 290 289 289 289 289 289 288 289 289 289
295 294 290 290 290 290 291 291 291 285 290 289 293 293 297 295 294 294 295 298 299 299 298 298 297 297 297 295 293 291 291 290 290 290 290 290 290 289 289 289 289 289 289 289
293 293 291 290 289 290 289 290 289 288 289 290 290 295 293 296 293 294 296 300 300 299 299 299 299 298 297 296 294 293 291 291 290 290 290 290 290 290 290 290 289 289 289 289
293 291 288 291 289 288 289 290 291 291 290 287 289 292 294 294 294 295 297 300 300 300 300 299 299 298 297 296 295 294 293 292 291 291 290 290 290 290 290 290 290 289 289 289
292 289 289 294 292 288 288 289 290 284 283 286 291 296 292 292 294 296 296 298 298 299 299 300 299 298 297 296 295 294 293 292 292 291 290 290 290 290 289 289 289 289 289 289
294 289 295 300 298 291 289 289 289 288 285 290 293 297 294 292 291 295 297 298 298 298 298 299 299 298 297 296 295 294 293 293 292 291 290 290 290 290 290 289 289 289 289 289
290 290 290 289 292 288 290 291 290 291 293 294 298 294 295 296 292 296 299 299 298 297 297 297 299 299 298 297 296 295 294 293 292 291 290 290 290 290 290 289 289 289 289 289
288 287 286 289 285 288 291 291 290 291 293 292 294 293 295 296 296 295 297 298 297 298 297 297 297 297 297 297 296 295 294 293 292 291 290 290 290 290 290 289 289 290 289 289
287 287 290 296 283 284 291 290 292 294 291 294 294 296 296 293 291 293 296 296 297 298 298 297 297 297 297 296 296 295 294 293 292 291 290 290 290 290 290 290 289 290 289 289
286 289 291 293 283 291 298 289 292 294 295 292 295 297 296 295 296 294 296 296 297 297 297 297 297 296 296 296 295 294 294 293 291 291 290 290 290 290 290 290 290 289 289 289
287 289 290 295 287 294 297 287 290 291 295 294 292 293 295 295 292 292 295 295 297 298 298 296 296 296 296 295 295 293 293 291 291 291 290 290 290 290 290 290 289 289 289 289
285 283 292 277 289 296 301 295 293 291 295 296 294 295 295 291 291 294 298 297 296 297 297 296 296 295 295 295 293 293 291 291 291 291 291 290 290 290 290 290 289 289 289 288
282 280 288 293 292 294 294 288 294 295 300 299 297 295 294 291 294 297 299 298 298 298 297 295 295 295 295 294 293 292 291 291 292 291 290 290 290 290 290 289 289 289 288 287
289 287 287 288 292 294 294 292 297 301 302 300 300 299 295 296 297 296 297 297 298 298 296 295 295 294 293 292 292 291 291 291 291 290 291 290 290 290 290 289 288 288 287 286
296 294 297 292 295 294 294 299 299 299 300 299 299 301 300 299 298 298 298 297 297 297 295 295 294 293 293 292 291 291 291 290 290 291 291 290 290 289 289 288 288 287 285 284
292 294 293 296 296 294 295 295 297 298 298 299 298 299 299 299 300 299 297 295 296 296 295 294 293 293 293 291 291 290 290 290 291 291 290 290 289 289 288 287 286 285 284 282
300 297 294 295 296 297 298 298 295 296 297 297 298 297 298 298 298 298 298 296 295 295 295 294 293 293 292 291 290 290 291 291 291 290 290 289 289 288 286 285 284 283 281 280
299 299 299 298 299 298 299 299 298 297 297 297 297 297 297 298 298 297 297 296 295 294 294 293 292 292 291 291 291 291 290 291 290 290 289 288 287 286 285 284 282 280 278 277
Wind_Speed
12 10 6 7 6 5 8 6 5 2 3 4 4 1 7 10 12 13 10 8 6 4 4 6 7 7 7 8 8 8 9 9 9 9 9 9 10 12 12 13 14 15 16 17
7 6 5 2 7 9 7 7 3 1 3 3 3 6 8 12 11 17 14 13 12 10 9 9 9 9 9 8 8 8 8 8 7 7 7 8 8 9 10 11 11 13 15 17
6 0 3 4 6 6 5 5 2 2 2 3 2 6 6 8 18 18 20 19 17 15 13 12 13 13 12 11 10 9 8 7 6 6 6 5 6 6 7 8 9 12 14 15
5 4 2 3 4 2 3 3 3 4 3 1 4 4 5 6 9 17 27 26 25 21 18 15 15 16 15 13 12 11 9 9 7 5 4 3 3 3 3 5 8 10 12 14
0 3 4 4 1 1 3 2 3 2 3 4 1 3 6 3 8 14 27 33 31 27 23 20 18 16 15 16 15 14 13 10 8 6 4 3 2 1 2 5 7 8 10 13
3 2 2 1 1 1 2 3 4 3 3 3 4 4 5 6 9 5 25 37 36 33 30 26 20 18 19 18 18 16 14 12 10 9 7 6 5 4 4 6 7 8 10 13
1 0 0 2 3 2 3 3 3 5 4 4 2 2 11 7 8 12 22 38 39 37 35 32 28 25 22 21 19 17 16 14 12 12 10 9 8 7 8 8 9 10 12 13
5 5 5 3 2 4 2 4 4 5 2 4 4 6 6 6 12 17 15 26 35 38 38 36 33 30 24 21 20 20 19 16 16 14 12 12 11 11 12 12 12 12 14 15
4 2 1 1 1 2 3 3 3 7 1 3 3 7 10 6 7 13 21 20 30 38 40 40 36 34 30 26 22 21 20 18 19 17 16 15 14 15 14 14 15 15 16 18
5 2 0 1 1 2 1 5 3 3 1 5 5 6 7 5 10 9 16 28 30 33 38 41 40 38 34 30 25 22 22 21 19 19 19 17 16 16 16 17 17 17 18 19
4 3 1 2 7 8 3 3 2 3 4 5 2 6 8 10 11 15 26 35 33 35 35 40 41 39 36 32 30 27 25 25 23 22 20 19 18 17 18 19 19 20 21 22
7 5 4 7 0 1 2 5 6 4 6 4 2 9 5 9 10 21 30 36 35 34 37 35 37 37 37 35 33 31 29 26 25 23 22 22 21 20 21 21 21 22 24 24
9 3 2 7 1 2 5 6 4 3 3 7 6 8 2 6 12 19 24 27 32 35 36 37 37 38 37 38 36 34 31 29 26 25 25 25 24 24 25 24 23 24 25 25
14 4 8 12 9 6 6 8 13 7 4 4 14 23 10 9 11 22 29 29 29 32 37 39 39 41 40 38 38 35 32 29 27 25 27 27 27 25 25 25 25 25 26 27
6 9 6 5 3 5 5 7 17 18 23 13 23 23 25 23 15 33 34 32 30 31 36 40 43 43 43 42 39 37 34 31 27 28 27 28 25 24 25 26 26 26 27 28
4 4 3 5 1 5 9 13 14 25 15 22 22 31 16 17 21 28 38 35 35 37 37 39 41 42 43 43 40 37 35 32 29 29 29 26 25 24 25 25 26 28 28 28
9 6 4 15 2 6 14 22 25 20 14 21 20 40 6 15 22 32 40 40 41 44 45 40 40 40 40 41 39 37 33 30 30 29 28 27 25 24 25 25 27 28 28 28
8 7 3 3 2 9 10 9 16 29 29 26 29 32 20 26 35 37 43 41 39 43 46 44 39 39 36 36 35 31 29 30 28 28 27 25 23 24 24 26 27 27 27 28
2 5 4 8 7 14 23 7 10 9 23 28 30 35 45 30 16 26 38 37 37 34 34 30 35 35 36 34 31 29 30 28 27 26 24 21 22 24 26 26 26 26 28 30
2 3 6 3 7 22 40 10 23 10 22 22 35 33 26 15 9 19 45 46 46 40 36 29 26 26 29 32 31 30 29 26 26 22 20 20 23 24 25 25 25 27 28 29
3 2 16 18 9 16 6 13 25 8 9 20 33 41 20 12 25 22 13 23 27 31 36 30 26 29 31 30 31 31 28 27 20 19 20 22 22 23 24 25 26 27 27 29
12 10 7 4 9 27 13 12 22 21 33 13 22 32 32 41 41 41 33 24 17 23 29 32 29 28 27 29 29 29 26 20 20 21 21 21 23 23 24 25 26 27 28 29
19 17 15 14 9 8 13 27 32 36 36 22 19 24 29 34 37 37 31 26 22 24 31 33 30 27 28 28 28 27 21 20 21 21 21 22 22 22 23 24 25 26 26 26
10 22 12 22 27 28 38 37 43 34 39 42 35 31 29 34 34 35 34 27 26 29 32 34 31 29 28 28 26 22 20 21 21 20 21 21 20 22 23 23 23 23 24 25
22 14 21 21 27 29 54 40 39 42 41 38 40 39 34 33 36 35 34 32 33 33 33 34 32 28 27 27 25 23 22 21 20 20 19 19 20 21 21 20 21 23 23 24
27 25 18 19 28 27 48 43 47 46 49 53 52 48 46 42 40 39 34 35 37 37 37 34 29 25 26 25 24 22 21 21 19 18 18 18 19 18 19 19 20 21 23 23
Wind_Direction
30 62 32 331 1 93 109 96 103 319 309 44 15 321 241 242 245 254 247 236 228 224 188 166 157 154 143 135 127 127 121 113 108 98 94 91 79 75 69 60 53 46 40 35
41 51 319 26 46 68 76 99 65 48 28 65 321 277 250 242 248 242 238 232 223 215 211 192 186 187 178 167 158 147 137 133 128 119 108 95 90 82 71 62 52 45 38 31
99 167 24 81 41 59 31 95 149 135 47 80 15 284 238 239 233 235 235 238 235 226 220 210 205 201 197 190 184 177 165 157 151 141 123 108 92 79 71 58 46 39 32 26
78 355 76 70 73 1 66 10 74 104 54 193 75 276 263 226 245 234 236 232 231 226 222 218 215 209 207 200 199 198 193 189 186 177 154 126 105 83 58 38 32 25 20 17
19 28 29 48 19 340 140 85 52 73 87 67 3 71 266 95 252 239 235 232 231 225 223 220 215 211 207 206 207 207 208 206 208 205 203 209 232 256 350 3 4 2 1 2
103 69 79 71 3 353 135 87 55 54 63 21 228 133 267 194 215 229 226 230 228 225 223 223 220 217 215 213 213 215 218 217 221 223 230 238 252 281 312 318 321 331 343 350
340 255 125 145 103 12 65 56 350 356 7 222 164 55 248 241 227 218 214 224 225 224 223 222 220 220 218 217 217 219 223 224 229 234 238 248 257 270 281 285 298 314 328 334
157 302 175 166 159 179 157 145 157 216 235 266 352 237 249 219 234 231 230 232 227 225 225 225 224 224 223 223 221 222 225 225 232 236 240 246 254 263 271 281 291 305 311 316
131 253 3 31 106 135 196 183 138 100 71 36 229 279 290 230 256 223 224 229 227 226 225 225 225 226 226 226 227 229 231 232 234 240 241 245 253 260 269 277 286 300 305 309
193 76 264 150 61 23 186 152 74 1 266 287 280 283 242 250 229 221 222 223 224 224 227 226 226 225 226 228 231 233 235 238 239 242 245 247 256 263 271 276 284 291 297 298
137 104 278 42 203 180 153 207 67 127 149 193 257 255 217 223 204 208 221 223 223 221 223 224 226 225 226 227 229 232 237 240 239 243 248 251 257 264 269 274 281 287 290 295
188 143 174 199 99 54 244 218 166 140 230 228 179 263 252 230 226 218 226 228 228 227 228 228 227 226 225 225 227 230 235 241 243 244 246 250 255 260 267 275 283 284 285 287
181 233 23 332 12 6 217 199 170 94 63 200 158 258 263 244 242 236 239 236 235 231 230 229 228 227 226 226 226 229 233 238 243 244 246 249 254 261 267 273 278 280 283 287
159 160 181 231 216 133 183 198 189 154 145 198 221 251 259 244 231 236 235 240 237 234 231 229 228 228 228 228 228 230 234 238 242 245 248 250 253 261 267 270 275 282 285 287
166 209 189 241 207 194 212 193 185 205 219 202 254 231 241 236 223 229 232 238 236 234 231 230 230 231 230 229 231 232 235 239 243 246 248 250 257 262 269 270 277 282 285 287
213 235 125 272 268 247 250 226 198 221 230 247 265 271 246 257 241 238 242 236 236 234 234 235 234 233 232 231 231 232 235 239 242 245 249 252 258 264 270 271 276 282 286 288
161 148 123 260 55 327 279 212 212 220 207 217 231 247 224 239 228 231 236 236 238 243 241 243 239 235 234 233 231 232 234 237 241 244 248 251 258 266 269 274 278 284 287 288
157 154 167 252 56 251 253 176 200 219 227 215 243 257 249 241 246 245 248 248 248 248 248 250 245 237 236 234 231 231 230 232 236 242 245 250 259 266 272 277 282 285 286 287
223 150 201 222 199 285 273 176 168 180 253 219 228 247 251 254 256 255 252 244 239 245 247 248 243 243 240 233 227 227 228 229 236 240 244 252 262 268 275 280 282 284 287 288
69 46 206 118 196 241 254 177 191 103 269 183 214 237 241 185 241 257 256 253 248 245 241 230 230 227 218 217 218 219 223 230 237 238 247 255 261 272 279 281 285 286 286 288
162 254 220 227 239 265 143 140 140 169 263 183 208 230 216 194 223 246 267 253 251 244 237 222 215 214 211 210 211 214 217 230 235 240 246 258 269 274 278 283 285 286 289 291
182 175 206 204 220 249 144 164 205 236 274 237 220 231 217 232 245 246 249 248 246 229 211 206 206 204 204 205 207 209 222 228 230 241 254 264 269 274 281 285 287 290 291 292
232 217 229 207 230 254 222 237 240 242 258 254 246 245 236 238 240 246 243 233 223 212 199 201 203 198 199 204 204 215 221 226 234 247 257 265 273 280 284 287 288 290 292 297
226 229 227 246 249 255 264 259 252 249 247 253 258 259 248 244 246 243 237 224 214 203 200 197 193 195 201 201 209 217 221 227 238 248 259 268 276 282 285 287 289 292 294 295
234 211 230 252 249 261 263 254 252 251 249 253 255 257 259 254 247 247 239 226 216 206 196 189 190 196 200 203 210 215 224 232 239 250 259 269 279 281 285 289 292 293 294 298
231 237 234 240 248 237 256 264 255 250 250 253 254 253 250 245 247 243 240 232 215 199 189 190 193 194 198 205 213 222 227 232 242 252 261 270 274 278 284 289 290 295 299 304